Location: Newark
(35.6799°N, 139.7636°E)
Time: 13:48:06
(UTC+00:00)

Explorer 7 - Pass Details

Date: 10 December 2019
Orbit: 485 x 679 km, 50.3° (Epoch: 19 January)

Event Time Altitude Azimuth Distance (km) Brightness Sun altitude
Rises 11:53:16 0° 314° (NW) 3,021 - -53.1°
Reaches altitude 10° 11:55:54 10° 325° (NW) 2,089 - -53.6°
Maximum altitude 12:00:12 31° 27° (NNE) 1,137 - -54.5°
Drops below altitude 10° 12:04:19 10° 90° (E) 2,000 - -55.3°
Sets 12:06:47 0° 101° (E) 2,871 - -55.8°
